Showing default

COSMOS 2245, 22646

Orbit data source: Space-Track

COSMOS 2245, 22646 is a payload satellite owned by VKS (CIS) in LEO that was launched on Tue, 11 May 1993 UTC via a TSIKLON-3 launch vehicle from the Plesetsk Missile And Space Complex (PKMTR). Payload-class satellites include a variety of spacecraft equipped with specific instruments for various scientific and technological missions. These include communications satellites like Starlink; space stations such as the ISS; scientific satellites like the Hubble; Earth observation satellites from companies like Planet Labs, Umbra, and HawkEye 360; GPS; miniature CubeSats for education and research; and military/defense satellites.

Loading next visibility...
Identifier
22646, 1993-030A
Orbit
LEO
Country
Flag of CISCIS
Related business
Manufacturer
NPO PM
Mission
Defense Communications
Bus & Motor
STRELA-3, Unknown motor
Mass
225 kg wet, 225 kg dry
Launch date (UTC)
1993-05-11 (32 years ago)
Launch vehicle
TSIKLON-3
Launch site
Plesetsk Missile And Space Complex (PKMTR)
Object type
Payload
Rocket body
Debris
Shape & HBR
Cyl, 0.8 m
Radar Cross Section
1.257 m², Medium (>0.1 m² and < 1m²)

Expand to show TLE details & history
Last TLE update: 11 hours ago

TLE from 11 hours ago
0 COSMOS 2245
1 22646U 93030A   25258.58922844  .00000021  00000-0  54457-4 0  9991
2 22646  82.5835 125.8950 0011731 159.5889 262.5264 12.64065684492386
Epoch: 2025-09-15T14:08Z
TLE epoch observation values (Epoch: 2025-09-15T14:08:29.337Z)
Latitude
61.18092°
Longitude
-67.40234°
Altitude
1,417.819 km
Speed
7.157 km/s
True Right ascension
09h 18m 02s
True Declination
61° 02' 52"
Sunlit
Object was in daylight at epoch
Visualization orbit readout
Latitude
Unknown
Longitude
Unknown
Altitude
Unknown
Speed
Unknown
Apparent Right ascension
Unknown
Apparent Declination
Unknown
Sunlit
N/A
Visualization observer readout
Local Sidereal Time
17:42:08
Azimuth
Unknown
Elevation
Unknown
Doppler factor
Unknown
Orbital elements
Apogee altitude
1,412.655 km
Perigee altitude
1,394.397 km
Semi-major axis
7,781.663 km
Eccentricity
0.00117
Inclination
82.5835°
RAAN
125.895°
Arg. of periapsis
159.5889°
True anomaly
262.39314°
Mean anomaly
262.5264°
Eccentric anomaly
262.45977°
Mean motion
3.1618 °/min
Orbital period
113.86 mins
BSTAR
0.000054457
Loading maneuver chart data...
Computing Atmospheric mass density...
Loading historical data...
Loading historical data...
Loading historical data...
Loading historical data...
Loading historical data...
Loading historical data...
Loading historical data...

Documentation

Showing up to 5 results
|